Погода в Вадсё

Норвегия     70°04′35″N   29°44′44″E
темп.,
°C
ветер,
м/с
пор.,
м/с
влажн.,
%
обл.,
%
осадки,
мм/ч
давл.,
гПа
погр.,
м
15 апреля, чт
чт1523:000зсз1620796 0.0 10131302
02:00−1зсз1215747 0.0 1016939
05:00−1з7968100 0.0 1019520
08:00−2зюз336877 0.0 1019251
11:00−1ююз2381100 0.0 1020446
14:000вюв2283100 0.0 1021352
17:000вюв4497100 0.4 1020259
20:000з1599100 1.4 1021318
16 апреля, пт
пт1623:00+3зсз121777100 1.1 1022803
02:00+2зсз121875100 1.1 1024811
05:00+2з101489100 0.0 1026869
08:00+1з71197100 0.2 1028534
11:00+2зсз6108956 0.0 1029408
14:00+3з7139586 0.1 1029438
17:00+3з81396100 0.3 1030427
20:00+4з101587100 0.6 1029389
17 апреля, сб
сб1723:00+3з91494100 0.3 1030477
02:00+4з71284100 0.3 1029230
05:00+4з71179100 0.0 1029180
08:00+4зсз8137596 0.0 1029256
11:00+4зсз8137965 0.0 1030263
14:00+4зсз8128094 0.0 1031211
17:00+4з698166 0.0 1031136
20:00+3з68784 0.0 103290
18 апреля, вс
вс1823:00+3з46740 0.0 103364
02:00+2з23750 0.0 103346
05:00+2зюз22800 0.0 103252
08:00+2зюз22845 0.0 103266
11:00+3юз348918 0.0 103169
14:00+3зюз6684100 0.0 1031227
17:00+3зсз3389100 0.0 103055
20:00+3зсз228798 0.0 102919
19 апреля, пн
пн1923:00+3ююз228620 0.0 102814
02:00+3ююз44875 0.0 102742
05:00+3зюз34895 0.0 102665
08:00+2з469055 0.0 1026235
11:00+3з578525 0.0 1025148
14:00+4з68895 0.0 1024144
17:00+4з588924 0.0 1023117
20:00+4з33872 0.0 102220